Regional Weather Roundup
Issued by NWS

Home | Current Version | Previous Version | Graphics & Text | Print | Product List | Glossary On
Versions: 1 2 3 4 5 6 7 8 9 10 11 12 13 14 15 16 17 18 19 20 21 22 23 24 25 26 27
000
ASUS45 KBOU 242207
RWRCO

WEATHER ROUNDUP FOR COLORADO
NATIONAL WEATHER SERVICE DENVER/BOULDER CO
400 PM MDT WED AUG 24 2016

NOTE: "FAIR" INDICATES FEW OR NO CLOUDS BELOW 12000 FEET WITH NO
SIGNIFICANT WEATHER AND/OR OBSTRUCTIONS TO VISIBILITY.

COZ001>005-013-030-031-242300-
...NORTHWEST COLORADO...

CITY           SKY/WX    TMP DP  RH WIND       PRES   REMARKS
CRAIG          FAIR      77  26  15 W13       30.14S
HAYDEN         FAIR      77  28  16 W18G26    30.15F
MEEKER         FAIR      79  37  22 SW15G22   30.15F
MOUNT WERNER   NOT AVBL
STEAMBOAT SPGS FAIR      72  36  26 SE9       30.18S
WALDEN         FAIR      63  30  29 NW8       30.28S
$$

COZ006>008-011-242300-
...WEST CENTRAL VALLEYS...

CITY           SKY/WX    TMP DP  RH WIND       PRES   REMARKS
GRAND JUNCTION FAIR      83  37  19 N12       30.08F
MONTROSE       FAIR      75  36  24 SW8       30.17F
EAGLE          MOSUNNY   72  34  25 W14G25    30.21S
RIFLE          CLOUDY    70  44  39 SW22      30.16R
DELTA          FAIR      81  45  28 SW6       30.13F
NUCLA          FAIR      77  41  27 E7        30.21F
$$

COZ017>023-064>068-242300-
...SOUTHWEST COLORADO...

CITY           SKY/WX    TMP DP  RH WIND       PRES   REMARKS
DURANGO        FAIR      66  46  48 NW12      30.24S
CORTEZ         FAIR      76  47  35 VRB5      30.18F
PAGOSA SPRINGS FAIR      67  47  47 S6        30.28F
TELLURIDE      FAIR      57  38  49 E7G17     30.42F
WOLF CREEK PAS PTSUNNY   45  41  87 N3        30.56F
$$

COZ009-010-012-014-032>034-037-058>063-242300-
...CENTRAL COLORADO...

CITY           SKY/WX    TMP DP  RH WIND       PRES   REMARKS
ASPEN          FAIR      69  34  27 SW9G17    30.26S
BUENA VISTA    PTSUNNY   65  44  47 SE7       30.31F
COPPER MTN     PTSUNNY   52  41  66 CALM      30.53F
BERTHOUD PASS  PTSUNNY   39  27  60 NE6       30.55F
COTTONWOOD PAS FAIR      59  43  55 SE3       30.42F
GUNNISON       FAIR      68  39  34 CALM      30.28F
KREMMLING      FAIR      70  32  24 SE9       30.24F
LEADVILLE      FAIR      56  38  50 S8        30.37F
MONARCH PASS   FOG       41  39  93 NE8       30.64S THUNDER VSB<1/4
SALIDA         FAIR      67  47  48 E10       30.37S
SUNLIGHT       CLOUDY    54  32  43 CALM      30.51R
WILKERSON PASS FOG       41  39  93 S7        30.54S VSB<1/4
$$

COZ069>075-242300-
...SAN LUIS VALLEY/SANGRE DE CRISTO MOUNTAINS...

CITY           SKY/WX    TMP DP  RH WIND       PRES   REMARKS
ALAMOSA        CLOUDY    61  45  55 NE3       30.29F
LA VETA PASS   RAIN      45  43  93 NE9       30.46R
SAGUACHE       FAIR      64  43  45 E9        30.31S
$$

COZ035-036-038>040-242300-
...NORTHERN COLORADO FRONT RANGE...

CITY           SKY/WX    TMP DP  RH WIND       PRES   REMARKS
DENVER INTL AP CLOUDY    60  53  77 S12       30.24F
DMNS CITY PARK   N/A     60  54  83 SE10G17   30.21F
AURORA         PTSUNNY   58  55  88 S6        30.25F
FRONT RANGE AP LGT RAIN  61  55  82 SW9       30.26F
ERIE MUNI ARPT PTSUNNY   65  49  55 S14G20    30.20F
BOULDER MUN AP FAIR      68  46  45 SE14G21   30.20F
CENTENNIAL     LGT RAIN  59  51  75 S9        30.27F
BROOMFIELD     PTSUNNY   63  54  72 SW9       30.23F
FORT COLLINS   NOT AVBL
LONGMONT       FAIR      69  47  46 S9        30.21F
$$

COZ041-046-047-076>085-087-088-242300-
...PIKES PEAK/PALMER DIVIDE AND SOUTHERN FOOTHILLS...

CITY           SKY/WX    TMP DP  RH WIND       PRES   REMARKS
COLO. SPRINGS  CLOUDY    60  50  69 N13       30.28S
A. F. ACADEMY  LGT RAIN  56  53  92 N9        30.30F
SCHRIEVER AFB  NOT AVBL
ELLICOTT       NOT AVBL
FALCON         CLOUDY    58  46  64 N12G18    30.32S
FORT CARSON    NOT AVBL
LIMON          FAIR      75  32  20 E12       30.21S
MONUMENT HILL  LGT RAIN  52  50  93 NW9       30.34F
TRINIDAD       LGT RAIN  58  52  80 NW14      30.23R
$$

COZ042>045-048>051-090-091-242300-
...NORTHEAST COLORADO...

CITY           SKY/WX    TMP DP  RH WIND       PRES   REMARKS
GREELEY ARPT   FAIR      66  54  63 S16       30.19R
AKRON          CLOUDY    69  32  25 E6        30.20F
BURLINGTON     FAIR      73  37  27 NE21      30.17F
WRAY           NOT AVBL
STERLING       PTSUNNY   73  37  27 SW5       30.16S
HOLYOKE        FAIR      79  37  22 SE10      30.16F
FORT MORGAN    CLOUDY    67  42  40 S6        30.21F
$$

COZ086-089-092>099-242300-
...SOUTHEAST COLORADO...

CITY           SKY/WX    TMP DP  RH WIND       PRES   REMARKS
PUEBLO         CLOUDY    73  49  42 S8        30.17R
LA JUNTA       FAIR      79  43  27 E13G24    30.12F
LAMAR          FAIR      80  49  33 NE15      30.09F
SPRINGFIELD      N/A     76  53  44 N9        30.11S
$$




USA.gov is the U.S. government's official web portal to all federal, state and local government web resources and services.